Date,TemperatureHighF,TemperatureAvgF,TemperatureLowF,DewpointHighF,DewpointAvgF,DewpointLowF,HumidityHigh,HumidityAvg,HumidityLow,PressureMaxIn,PressureMinIn,WindSpeedMaxMPH,WindSpeedAvgMPH,GustSpeedMaxMPH,PrecipitationSumIn
2013-7-1,92.3,79.5,67.5,64.5,59.9,55.8,76,53,32,29.92,29.92,11,2,11,0.00
2013-7-2,95.5,80.3,67.1,66.1,61.6,56.5,79,55,29,29.92,29.92,11,1,11,0.00
2013-7-3,93.7,80.5,67.6,67.1,62.7,58.2,83,57,35,29.92,29.92,8,1,8,0.00
2013-7-4,95.9,81.6,67.8,68.2,63.5,60.1,83,56,34,29.92,29.92,7,1,7,0.00
2013-7-5,97.7,83.1,67.5,69.1,63.3,58.5,83,54,33,29.92,29.92,8,2,8,0.00
2013-7-6,98.2,84.7,70.9,73.8,66.8,61.3,88,58,34,29.92,29.92,9,2,9,0.00
2013-7-7,101.5,84.0,72.9,75.2,71.6,66.6,89,68,41,29.92,29.92,21,3,21,0.00
2013-7-8,96.3,84.0,75.2,77.5,72.5,69.7,88,70,46,29.92,29.92,18,3,18,0.02
2013-7-9,102.4,87.3,72.7,77.0,71.6,65.8,91,63,34,29.92,29.92,15,3,15,0.00
2013-7-10,102.7,89.1,76.5,75.7,72.1,67.9,87,60,37,29.92,29.92,13,3,13,0.00
2013-7-11,102.6,85.1,78.6,74.6,72.1,70.3,80,66,39,29.92,29.92,10,2,10,0.00
2013-7-12,100.8,86.6,73.6,74.9,71.6,69.8,89,64,39,29.92,29.92,8,2,8,0.00
2013-7-13,99.5,86.3,75.9,71.6,63.1,43.0,74,49,16,29.92,29.92,10,2,10,0.00
2013-7-14,87.1,80.0,74.1,72.3,68.3,62.7,88,68,56,29.92,29.92,8,1,8,0.04
2013-7-15,89.6,76.8,71.6,73.7,70.6,67.2,95,82,56,29.92,29.92,18,1,18,1.23
2013-7-16,92.8,80.1,72.0,76.1,72.2,69.1,95,78,48,29.92,29.92,12,1,12,0.44
2013-7-17,91.2,81.2,73.9,77.0,73.7,71.7,95,80,55,29.92,29.92,10,1,10,1.25
2013-7-18,82.6,79.8,78.3,75.1,74.1,72.9,86,83,77,29.92,29.92,1,0,2,0.00
2013-7-19,86.5,79.1,73.6,75.1,72.1,68.0,92,80,56,29.92,29.92,5,1,5,0.37
2013-7-20,95.9,79.9,72.0,75.7,72.0,68.4,92,79,44,29.92,29.92,12,1,12,0.58
2013-7-21,95.5,82.1,73.2,77.0,73.4,69.8,91,76,49,29.92,29.92,15,3,15,0.01
2013-7-22,97.9,85.2,76.6,77.4,74.7,72.6,90,73,48,29.92,29.92,13,4,13,0.00
2013-7-23,98.1,86.6,77.5,76.4,73.3,69.7,88,67,44,29.92,29.92,15,4,15,0.00
2013-7-24,94.1,84.3,77.2,78.8,74.6,72.2,86,74,53,29.92,29.92,14,3,14,0.00
2013-7-25,95.9,85.8,74.8,76.0,73.1,70.4,94,68,45,29.92,29.92,8,1,8,0.00
2013-7-26,93.6,85.7,77.5,76.6,73.2,70.2,88,68,49,29.92,29.92,14,3,14,0.00
2013-7-27,86.4,79.9,73.8,75.6,72.1,68.2,93,78,60,29.92,29.92,12,3,12,0.14
2013-7-28,96.3,83.2,68.5,77.0,71.6,65.7,94,70,46,29.92,29.92,11,2,11,0.00
2013-7-29,84.9,80.0,76.6,76.8,74.5,72.9,90,83,76,29.92,29.92,12,2,12,0.00
2013-7-30,99.7,87.7,77.7,76.2,71.8,67.8,85,62,36,29.92,29.92,15,5,15,0.00
2013-7-31,99.7,88.1,78.1,75.6,72.7,69.9,85,63,41,29.92,29.92,11,4,11,0.00